Flag for U.S.A. Weather past 2 weeks in Sterling Heights, Michigan, U.S.A.

Now
78 °F

Scattered showers. Mostly cloudy.


Feels Like: 81 °F
Forecast: 62 / 75 °F
Wind: 10 mph from Southwest

Location: Selfridge Air National Guard Base

Current Time: Jul 7, 2015 at 12:03:41 PM

Latest Report: Jul 7, 2015 at 10:55 AM


Visibility: 7 mi

Pressure: 29.84 "Hg

Humidity: 84%

Dew point: 73 °F

Location of Sterling HeightsLocation

Historic Weather in Sterling Heights — Graph

°F

Sterling Heights temperature yesterday

Maximum temperature yesterday: 82 °F (at 3:55 PM)
Minimum temperature yesterday: 58 °F (at 6:58 AM)
Average temperature yesterday: 71 °F

Past Weeks' High & Low Weather Summary

 TemperatureHumidityPressure
High82 °F (Jul 6, 3:55 PM)100% (Jul 1, 4:03 AM)30.16 "Hg (Jul 1, 4:03 AM)
Low49 °F (Jul 3, 4:58 AM)37% (Jun 24, 12:55 PM)29.68 "Hg (Jun 23, 2:58 AM)
Average67 °F75%29.94 "Hg
* Reported Jun 22 10:55 AM — Jul 7 10:55 AM, Sterling Heights, Weather by CustomWeather, © 2015

Note: Actual official high and low records may vary slightly from our data, if they occured in-between our weather recording intervals... More about our weather records

Advertising

Sterling Heights weather history for previous 24 hours

 ConditionsComfort  
Time TempWeatherWind HumidityBarometerVisibility
10:55 AM
Tue, Jul 7
78 °FScattered showers. Mostly cloudy.10 mph84%29.84 "Hg7 mi
9:55 AM77 °FLight rain. Fog.10 mph87%29.84 "Hg4 mi
8:55 AM78 °FScattered showers. Broken clouds.9 mph80%29.85 "Hg5 mi
7:55 AM75 °FPartly sunny.9 mph82%29.85 "Hg5 mi
6:58 AM73 °FPassing clouds.9 mph84%29.84 "Hg10 mi
5:58 AM73 °FPassing clouds.9 mph83%29.84 "Hg10 mi
4:58 AM72 °FClear.8 mph85%29.84 "Hg10 mi
3:58 AM72 °FClear.8 mph82%29.85 "Hg10 mi
2:58 AM72 °FClear.8 mph83%29.87 "Hg10 mi
1:58 AM70 °FClear.7 mph90%29.88 "Hg10 mi
12:58 AM71 °FClear.8 mph88%29.89 "Hg10 mi
11:58 PM
Mon, Jul 6
71 °FClear.12 mph88%29.91 "Hg10 mi
10:58 PM70 °FClear.9 mph88%29.92 "Hg10 mi
9:58 PM72 °FSunny.9 mph79%29.90 "Hg10 mi
8:58 PM72 °FSunny.8 mph81%29.91 "Hg10 mi
7:55 PM76 °FPartly sunny.9 mph67%29.94 "Hg10 mi
6:55 PM79 °FPartly sunny.12 mph51%29.96 "Hg10 mi
5:55 PM80 °FPartly sunny.13 mph50%29.96 "Hg10 mi
4:55 PM81 °FPartly sunny.15 mph51%29.98 "Hg10 mi
3:55 PM82 °FScattered clouds.10 mph54%30.00 "Hg10 mi
2:55 PM81 °FScattered clouds.10 mph58%30.02 "Hg10 mi
1:55 PM79 °FPassing clouds.7 mph60%30.03 "Hg10 mi
12:55 PM78 °FScattered clouds.9 mph63%30.03 "Hg10 mi
Weather by CustomWeather, © 2015

See weather overviewHow to use our weather pages